This is the latest recevied weather packets stored in our database for station/object 5B4APJ-13. If no packets are shown the sender has not sent any weather packets the latest 10 day(s).
| Time | Temp. | Humidity | Pressure | Rain* | Wind** | Luminosity | Snow |
|---|---|---|---|---|---|---|---|
| 1777713126 | 18.89° C | 72% | 1012.5 hPa | 0 mm | 0.89 m/s, 272° | 178 W/m² | - |
| 1777712826 | 18.33° C | 72% | 1012.5 hPa | 0 mm | 0.45 m/s, 272° | 150 W/m² | - |
| 1777712526 | 18.33° C | 72% | 1012.6 hPa | 0 mm | 0.45 m/s, 272° | 118 W/m² | - |
| 1777712226 | 18.33° C | 72% | 1012.4 hPa | 0 mm | 0 m/s | 99 W/m² | - |
| 1777711926 | 18.33° C | 73% | 1012.4 hPa | 0 mm | 0.45 m/s, 284° | 132 W/m² | - |
| 1777711626 | 18.33° C | 74% | 1012.4 hPa | 0 mm | 0.45 m/s, 339° | 149 W/m² | - |
| 1777711326 | 18.33° C | 74% | 1012.5 hPa | 0 mm | 0.45 m/s, 224° | 153 W/m² | - |
| 1777711026 | 17.78° C | 76% | 1012.4 hPa | 0 mm | 0 m/s | 126 W/m² | - |
| 1777710726 | 17.78° C | 77% | 1012.4 hPa | 0 mm | 0.89 m/s, 247° | 100 W/m² | - |
| 1777710426 | 17.78° C | 79% | 1012.7 hPa | 0 mm | 0.45 m/s, 159° | 111 W/m² | - |
| 1777710126 | 17.78° C | 78% | 1012.7 hPa | 0 mm | 0.45 m/s, 223° | 153 W/m² | - |
| 1777709826 | 17.78° C | 77% | 1012.9 hPa | 0 mm | 1.34 m/s, 226° | 133 W/m² | - |
| 1777709526 | 17.78° C | 76% | 1012.8 hPa | 0 mm | 1.34 m/s, 250° | 131 W/m² | - |
| 1777709226 | 17.78° C | 76% | 1012.9 hPa | 0 mm | 1.34 m/s, 210° | 131 W/m² | - |
| 1777708925 | 17.78° C | 76% | 1012.7 hPa | 0 mm | 1.79 m/s, 210° | 99 W/m² | - |
| 1777708626 | 17.78° C | 76% | 1012.7 hPa | 0 mm | 1.34 m/s, 184° | 113 W/m² | - |
| 1777708326 | 17.78° C | 76% | 1012.9 hPa | 0 mm | 0.89 m/s, 190° | 98 W/m² | - |
| 1777708027 | 17.78° C | 76% | 1012.5 hPa | 0 mm | 1.79 m/s, 216° | 99 W/m² | - |
| 1777707726 | 17.78° C | 76% | 1012.6 hPa | 0 mm | 3.58 m/s, 181° | 107 W/m² | - |
| 1777707427 | 17.78° C | 76% | 1012.6 hPa | 0 mm | 1.34 m/s, 257° | 126 W/m² | - |
| 1777707127 | 18.33° C | 75% | 1012.7 hPa | 0 mm | 1.79 m/s, 239° | 126 W/m² | - |
| 1777706827 | 18.33° C | 75% | 1012.5 hPa | 0 mm | 1.79 m/s, 182° | 111 W/m² | - |
| 1777706527 | 18.33° C | 73% | 1012.7 hPa | 0 mm | 0.89 m/s, 184° | 104 W/m² | - |
| 1777706226 | 18.33° C | 72% | 1012.3 hPa | 0 mm | 1.34 m/s, 165° | 120 W/m² | - |
| 1777705926 | 18.89° C | 70% | 1012.2 hPa | 0 mm | 2.24 m/s, 102° | 138 W/m² | - |
* Rain latest hour (hover to see other rain measurements)
** Current wind speed in m/s (hover to see current wind gust speed)